Voltar ao catálogo

FENGYUN 1C DEB

AtivoPO
NORAD 37445·DEBRIS·🇨🇳 China

Lançado May 10, 1999 de Taiyuan Satellite Launch Center

Loading…

Próximas Passagens (próximas 24 horas)

TLE

AtualizadoSource: Space-Track

Época: Sep 13, 2026, 02:59 UTC

1 37445U 99025EHP 26256.12469219  .00000959  00000-0  35076-3 0  9990
2 37445  99.2507 350.4088 0167201 224.4016 134.3657 14.28081866683551

Acompanhe FENGYUN 1C DEB em tempo real com AllMySat

Download on the App Store